Regional Weather Roundup
Issued by NWS

Home | Current Version | Previous Version | Text Only | Print | Product List | Glossary On
Versions: 1 2 3 4 5 6 7 8 9 10 11 12 13 14 15 16 17 18 19 20 21 22 23 24 25 26 27 28 29 30 31 32 33 34 35 36 37 38 39 40 41 42 43 44 45 46 47 48 49 50
000
ASUS43 KTOP 270808
RWRKS

WEATHER ROUNDUP FOR KANSAS
NATIONAL WEATHER SERVICE GOODLAND KS
200 AM CST FRI FEB 27 2015

NOTE:  "FAIR" INDICATES FEW OR NO CLOUDS BELOW 12,000 FEET WITH NO
SIGNIFICANT WEATHER AND/OR OBSTRUCTIONS TO VISIBILITY.

KSZ001>006-013>018-027>032-041>047-270900-
NORTHWEST KANSAS

CITY           SKY/WX    TMP DP  RH WIND       PRES   REMARKS
GOODLAND       CLOUDY    12   3  67 SE16      30.31S WCI  -5
HAYS           CLOUDY    10  -8  44 E9        30.49S
HILL CITY      CLOUDY     9  -2  61 E7        30.49S
RUSSELL        MOCLDY     8   1  73 E6        30.50F
$$

KSZ061>065-074>080-084>089-270900-
SOUTHWEST KANSAS

CITY           SKY/WX    TMP DP  RH WIND       PRES   REMARKS
DODGE CITY     CLOUDY    16  -3  43 E8        30.41F
ELKHART          N/A     15   6  67 E12         N/A  WCI   2
GARDEN CITY    CLOUDY    14   5  67 E9        30.37F
GREAT BEND     CLOUDY    10  -2  56 E9        30.51R
LIBERAL        CLOUDY    16   1  53 E9        30.37S
PRATT          CLOUDY    14   1  57 E10       30.48F WCI   1
$$

KSZ066>073-081>083-090>101-270900-
SOUTHEAST KANSAS

CITY           SKY/WX    TMP DP  RH WIND       PRES   REMARKS
CHANUTE        CLEAR     10   1  67 N10       30.59R WCI  -4
COFFEYVILLE    PTCLDY    13   2  61 N10       30.59R WCI   0
HUTCHINSON     MOCLDY    11   1  64 NE9       30.54F
MEDICINE LODGE   N/A     15   2  56 NE10      30.51S WCI   2
NEWTON         CLOUDY     9  -2  61 NE5       30.54F
PARSONS        CLEAR     12   1  61 N6        30.60R
WICHITA INTL   MOCLDY    13   1  59 NE14      30.56R WCI  -2
WICHITA JABRA  PTCLDY    10   2  69 NE9       30.55R
WICHITA MCCONL MOCLDY    11   1  63 NE10      30.55R WCI  -2
WINFIELD       CLOUDY    13   1  59 NE12      30.58R WCI  -1
$$

KSZ007>012-019>026-033>040-048>060-102>105-270900-
NORTHEAST KANSAS

CITY           SKY/WX    TMP DP  RH WIND       PRES   REMARKS
CONCORDIA      PTCLDY     5   1  83 N5        30.56S
EMPORIA        CLEAR      6   0  76 NE6       30.58R
LAWRENCE       CLEAR      3  -3  76 NW3       30.61R
MANHATTAN      CLEAR      5   0  79 N5        30.60S
MARYSVILLE     CLEAR      1  -4  78 CALM      30.58R
OLATHE IND     CLEAR      3  -3  76 N6        30.58S
OLATHE EXE     CLEAR      6  -4  63 N9        30.56S
SALINA         PTCLDY     9   0  67 SE3       30.59R
TOPEKA BILLARD CLEAR      5  -2  72 NW3       30.61S
TOPEKA FORBES  CLEAR      6  -1  73 CALM      30.58R
$$



USA.gov is the U.S. government's official web portal to all federal, state and local government web resources and services.